Soldotna, AK

11:22 AM AKST on February 08, 2016 (GMT -0900)
Soldotna

Weather History for PASX - May, 2012

Change the Weather History Date:

Sunday, May 27, 2012

  Actual Average Record
Temperature  
Mean Temperature 42 °F -  
Max Temperature 48 °F 56 °F 71 °F (1959)
Min Temperature 35 °F 38 °F 28 °F (2000)
Degree Days  
Heating Degree Days 24    
Moisture  
Dew Point 40 °F    
Average Humidity 84    
Maximum Humidity 93    
Minimum Humidity 71    
Precipitation  
Precipitation 0.00 in - - ()
Sea Level Pressure  
Sea Level Pressure 29.78 in    
Wind  
Wind Speed 4 mph (WNW)    
Max Wind Speed 13 mph    
Max Gust Speed -    
Visibility 9 miles    
Events      
Averages and records for this station are not official NWS values.
T = Trace of Precipitation, MM = Missing Value Source: NWS Daily Summary

Daily Weather History Graph

Daily Weather History Graph

Search for Another Location

Airport or City:

Trip Planner

Search our weather history database for the weather conditions in past years. The results will help you decide how hot, cold, wet, or windy it might be!

Date:

Astronomy

May. 27, 2012 Rise Set
Actual Time 4:55 AM AKDT 11:08 PM AKDT
Civil Twilight 3:33 AM AKDT 12:32 AM AKDT
Nautical Twilight Sun does not rise Sun does not rise
Astronomical Twilight Sun does not rise Sun does not rise
Moon 12:22 PM AKDT (5/27) 2:15 AM AKDT (5/27)
Length of Visible Light 20h 58m
Length of Day
18h 12m
Waxing Crescent, 39% of the Moon is Illuminated
May 27
Waxing Crescent
May 28
First Quarter
Jun 4
Full
Jun 11
Last Quarter
Jun 19
New

Hourly Weather History & Observations

Time (AKDT) Temp. Windchill Dew Point Humidity Pressure Visibility Wind Dir Wind Speed Gust Speed Precip Events Conditions
12:16 AM 44.6 °F 41.4 °F 39.2 °F 81% 29.67 in 10.0 mi SSW 5.8 mph - N/A   Clear
12:36 AM 44.6 °F 42.2 °F 39.2 °F 81% 29.67 in 10.0 mi SSW 4.6 mph - N/A   Clear
12:56 AM 44.6 °F 43.1 °F 37.4 °F 76% 29.67 in 10.0 mi SW 3.5 mph - N/A   Partly Cloudy
1:16 AM 42.8 °F - 39.2 °F 87% 29.67 in 10.0 mi Calm Calm - N/A   Scattered Clouds
1:36 AM 39.2 °F 37.0 °F 37.4 °F 93% 29.68 in 10.0 mi ENE 3.5 mph - N/A   Mostly Cloudy
1:56 AM 39.2 °F - 35.6 °F 87% 29.68 in 10.0 mi Calm Calm - N/A   Mostly Cloudy
2:16 AM 37.4 °F - 35.6 °F 93% 29.68 in 10.0 mi Calm Calm - N/A   Scattered Clouds
2:36 AM 39.2 °F - 35.6 °F 87% 29.68 in 10.0 mi Calm Calm - N/A   Clear
2:56 AM 35.6 °F - 33.8 °F 93% 29.69 in 10.0 mi Calm Calm - N/A   Clear
3:16 AM 37.4 °F - 35.6 °F 93% 29.70 in 10.0 mi Calm Calm - N/A   Scattered Clouds
3:36 AM 35.6 °F 32.8 °F 33.8 °F 93% 29.70 in - East 3.5 mph - N/A   Unknown
3:56 AM 35.6 °F - 33.8 °F 93% 29.70 in - Calm Calm - N/A   Mostly Cloudy
4:16 AM 37.4 °F 32.8 °F 35.6 °F 93% 29.70 in - East 5.8 mph - N/A   Overcast
4:36 AM 37.4 °F - 33.8 °F 87% 29.70 in 10.0 mi Calm Calm - N/A   Overcast
4:56 AM 37.4 °F 33.8 °F 35.6 °F 93% 29.71 in - East 4.6 mph - N/A   Mostly Cloudy
5:16 AM 37.4 °F 34.9 °F 35.6 °F 93% 29.71 in 10.0 mi ESE 3.5 mph - N/A   Mostly Cloudy
5:36 AM 39.2 °F 35.9 °F 35.6 °F 87% 29.71 in 10.0 mi East 4.6 mph - N/A   Scattered Clouds
5:56 AM 37.4 °F - 33.8 °F 87% 29.71 in 10.0 mi Calm Calm - N/A   Mostly Cloudy
6:16 AM 37.4 °F 33.8 °F 35.6 °F 93% 29.71 in 10.0 mi ENE 4.6 mph - N/A   Overcast
6:36 AM 37.4 °F 34.9 °F 35.6 °F 93% 29.71 in 10.0 mi East 3.5 mph - N/A   Overcast
6:56 AM 39.2 °F - 35.6 °F 87% 29.72 in 10.0 mi Calm Calm - N/A   Overcast
7:16 AM 41.0 °F - 37.4 °F 87% 29.72 in 10.0 mi Calm Calm - N/A   Overcast
7:36 AM 42.8 °F - 37.4 °F 81% 29.73 in 10.0 mi Calm Calm - N/A   Overcast
7:56 AM 42.8 °F - 39.2 °F 87% 29.73 in 9.0 mi Calm Calm - N/A   Overcast
8:16 AM 46.4 °F - 39.2 °F 76% 29.73 in 10.0 mi Calm Calm - N/A   Mostly Cloudy
8:36 AM 46.4 °F 41.9 °F 39.2 °F 76% 29.73 in 10.0 mi WSW 9.2 mph - N/A   Mostly Cloudy
8:56 AM 48.2 °F - 39.2 °F 71% 29.74 in 10.0 mi WSW 12.7 mph - N/A   Overcast
9:16 AM 48.2 °F - 39.2 °F 71% 29.74 in 10.0 mi West 9.2 mph - N/A   Overcast
9:36 AM 48.2 °F - 39.2 °F 71% 29.75 in 10.0 mi West 6.9 mph - N/A   Mostly Cloudy
9:56 AM 48.2 °F - 39.2 °F 71% 29.75 in 10.0 mi WNW 3.5 mph - N/A   Mostly Cloudy
10:16 AM 48.2 °F - 39.2 °F 71% 29.75 in 10.0 mi WNW 8.1 mph - N/A   Mostly Cloudy
10:36 AM 48.2 °F - 41.0 °F 76% 29.75 in 10.0 mi NW 5.8 mph - N/A   Overcast
10:56 AM 48.2 °F - 41.0 °F 76% 29.76 in 10.0 mi WNW 6.9 mph - N/A   Overcast
11:16 AM 48.2 °F - 41.0 °F 76% 29.76 in 10.0 mi WNW 9.2 mph - N/A   Overcast
11:36 AM 48.2 °F - 41.0 °F 76% 29.76 in 10.0 mi WNW 6.9 mph - N/A   Overcast
11:56 AM 48.2 °F - 41.0 °F 76% 29.77 in 10.0 mi WNW 8.1 mph - N/A   Overcast
12:16 PM 48.2 °F - 41.0 °F 76% 29.77 in 10.0 mi WNW 5.8 mph - N/A   Overcast
12:36 PM 48.2 °F - 41.0 °F 76% - 10.0 mi North - - N/A   Overcast
12:56 PM 46.4 °F 42.9 °F 42.8 °F 87% 29.78 in 10.0 mi WNW 6.9 mph - N/A   Overcast
1:16 PM 46.4 °F 42.4 °F 42.8 °F 87% 29.79 in 10.0 mi WNW 8.1 mph - N/A   Overcast
1:36 PM 46.4 °F 42.4 °F 42.8 °F 87% 29.79 in 9.0 mi WNW 8.1 mph - N/A   Overcast
1:56 PM 46.4 °F 44.3 °F 42.8 °F 87% 29.80 in 10.0 mi NNW 4.6 mph - N/A   Overcast
2:16 PM 46.4 °F 42.9 °F 41.0 °F 81% 29.81 in 10.0 mi West 6.9 mph - N/A   Overcast
2:36 PM 46.4 °F 44.3 °F 42.8 °F 87% 29.81 in 10.0 mi NW 4.6 mph - N/A   Overcast
2:56 PM 46.4 °F 44.3 °F 42.8 °F 87% 29.82 in 9.0 mi WNW 4.6 mph - N/A   Overcast
3:16 PM 46.4 °F 44.3 °F 42.8 °F 87% 29.82 in 9.0 mi WNW 4.6 mph - N/A   Overcast
3:36 PM 46.4 °F 45.2 °F 42.8 °F 87% 29.82 in 10.0 mi NNW 3.5 mph - N/A   Overcast
3:56 PM 48.2 °F - 42.8 °F 82% 29.82 in 10.0 mi West 3.5 mph - N/A   Overcast
4:16 PM 48.2 °F - 42.8 °F 82% 29.83 in 10.0 mi West 4.6 mph - N/A   Overcast
4:36 PM 48.2 °F - 42.8 °F 82% 29.83 in 10.0 mi WNW 6.9 mph - N/A   Overcast
4:56 PM 48.2 °F - 42.8 °F 82% 29.84 in 10.0 mi NW 4.6 mph - N/A   Overcast
5:16 PM 48.2 °F - 42.8 °F 82% 29.84 in 10.0 mi NW 4.6 mph - N/A   Overcast
5:36 PM 48.2 °F - 42.8 °F 82% 29.85 in 10.0 mi NW 4.6 mph - N/A   Overcast
5:56 PM 48.2 °F - 42.8 °F 82% 29.85 in 10.0 mi WNW 4.6 mph - N/A   Overcast
6:16 PM 48.2 °F - 41.0 °F 76% 29.85 in 10.0 mi Calm Calm - N/A   Overcast
6:36 PM 48.2 °F - 41.0 °F 76% 29.86 in 10.0 mi Calm Calm - N/A   Overcast
6:56 PM 48.2 °F - 42.8 °F 82% 29.86 in 9.0 mi Calm Calm - N/A   Overcast
7:16 PM 48.2 °F - 42.8 °F 82% 29.87 in 10.0 mi NW 3.5 mph - N/A   Overcast
7:36 PM 48.2 °F - 42.8 °F 82% 29.87 in 10.0 mi NW 3.5 mph - N/A   Overcast
7:56 PM 48.2 °F - 42.8 °F 82% 29.88 in 7.0 mi Calm Calm - N/A   Overcast
8:16 PM 46.4 °F 44.3 °F 42.8 °F 87% 29.88 in 3.0 mi West 4.6 mph - N/A   Overcast
8:36 PM 46.4 °F 43.5 °F 42.8 °F 87% 29.89 in 2.5 mi WNW 5.8 mph - N/A   Overcast
8:56 PM 46.4 °F 44.3 °F 42.8 °F 87% 29.89 in 3.0 mi WNW 4.6 mph - N/A   Overcast
9:16 PM 46.4 °F 45.2 °F 42.8 °F 87% 29.90 in 3.0 mi NNW 3.5 mph - N/A   Overcast
9:36 PM 44.6 °F 42.2 °F 42.8 °F 93% 29.90 in 2.5 mi WNW 4.6 mph - N/A   Overcast
9:56 PM 44.6 °F - 42.8 °F 93% 29.91 in 3.0 mi Calm Calm - N/A   Overcast
10:16 PM 44.6 °F - 42.8 °F 93% 29.91 in 2.0 mi Calm Calm - N/A   Overcast
10:36 PM 44.6 °F - 41.0 °F 87% 29.91 in 8.0 mi Calm Calm - N/A   Overcast
10:56 PM 44.6 °F - 42.8 °F 93% 29.91 in 8.0 mi Calm Calm - N/A   Overcast
11:16 PM 44.6 °F - 41.0 °F 87% 29.91 in 7.0 mi Calm Calm - N/A   Overcast
11:36 PM 44.6 °F - 42.8 °F 93% 29.92 in 8.0 mi Calm Calm - N/A   Overcast
11:56 PM 44.6 °F - 41.0 °F 87% 29.92 in 9.0 mi Calm Calm - N/A   Overcast